Location: Dompnac
(44.5644°N, 4.1026°E)
Time: 05:52:22
(UTC+00:00)

NOSS 2-2 (E) - Pass Details

Date: 25 January 2021
Orbit: 462 x 1744 km, 63.3° (Epoch: 05 March)

Event Time Altitude Azimuth Distance (km) Brightness Sun altitude
Rises 18:12:07 0° 329° (NNW) 2,995 7.3 -15.8°
Reaches altitude 10° 18:14:44 10° 346° (NNW) 2,254 6.5 -16.3°
Maximum altitude 18:18:40 21° 36° (NE) 1,865 5.6 -17.0°
Enters shadow 18:19:22 21° 46° (NE) 1,929 5.6 -17.1°
